Location: Miles
(41.4492°N, 81.6087°W)
Time: 02:37:24
(UTC+00:00)

S-56A Canister/Altair - Pass Details

Date: 24 September 2024
Orbit: 636 x 2487 km, 38.9° (Epoch: 11 October)

Event Time Altitude Azimuth Distance (km) Brightness Sun altitude
Rises 00:57:37 0° 275° (W) 3,147 12.2 -18.7°
Reaches altitude 10° 00:59:45 10° 271° (W) 2,348 11.1 -19.1°
Maximum altitude 01:05:04 56° 193° (SSW) 1,152 8.3 -20.1°
Enters shadow 01:08:19 32° 131° (SE) 1,838 8.9 -20.6°
